Home   Weather   Town of Fairfield   Past weeks
Flag for USA

Past Weather in Town of Fairfield, Maine, USA — Yesterday and Last 2 Weeks

Now
29 °F

Mostly cloudy.


Feels Like: 29 °F
Forecast: 29 / 21 °F
Wind: No wind

Location: Augusta State Airport

Current Time: Dec 6, 2019 at 3:33:03 pm

Latest Report: Dec 6, 2019 at 2:53 pm


Visibility: 8 mi

Pressure: 29.97 "Hg

Humidity: 58%

Dew Point: 16 °F

Location of Town of FairfieldLocation

Past Weather in Town of Fairfield — Graph

°F

Town of Fairfield Temperature Yesterday

Maximum temperature yesterday: 38 °F (at 1:53 pm)
Minimum temperature yesterday: 24 °F (at 5:25 am)
Average temperature yesterday: 30 °F

High & Low Weather Summary for the Past Weeks

 TemperatureHumidityPressure
High51 °F (Nov 26, 12:53 pm)100% (Nov 22, 2:53 am)30.11 "Hg (Nov 22, 2:53 am)
Low13 °F (Nov 30, 5:53 am)36% (Dec 1, 12:53 pm)29.20 "Hg (Nov 24, 9:12 pm)
Average31 °F76%29.71 "Hg
* Reported Nov 21 1:53 pm — Dec 6 1:53 pm, Town of Fairfield. Weather by CustomWeather, © 2019

Note: Actual official high and low records may vary slightly from our data, if they occured in-between our weather recording intervals... More about our weather records

Town of Fairfield Weather History for the Previous 24 Hours

Scroll right to see more
 ConditionsComfort  
Time TempWeatherWind HumidityBarometerVisibility
1:53 pm
Fri, Dec 6
29 °FOvercast.No wind58%29.96 "Hg10 mi
12:53 pm29 °FOvercast.5 mph58%29.96 "Hg10 mi
11:53 am29 °FOvercast.6 mph56%29.98 "Hg10 mi
10:53 am28 °FOvercast.8 mph58%29.98 "Hg10 mi
9:53 am27 °FPartly sunny.7 mph61%30.01 "Hg10 mi
8:53 am25 °FPassing clouds.6 mph63%30.02 "Hg10 mi
7:53 am23 °FSunny.8 mph65%30.00 "Hg10 mi
6:53 am22 °FClear.6 mph68%30.00 "Hg10 mi
5:53 am24 °FClear.6 mph62%29.97 "Hg10 mi
4:53 am25 °FClear.13 mph60%29.94 "Hg10 mi
3:53 am25 °FClear.8 mph60%29.92 "Hg10 mi
2:53 am24 °FPassing clouds.6 mph60%29.90 "Hg10 mi
1:53 am25 °FClear.14 mph60%29.88 "Hg10 mi
12:53 am27 °FPassing clouds.17 mph58%29.87 "Hg10 mi
11:53 pm
Thu, Dec 5
27 °FMostly cloudy.12 mph63%29.85 "Hg10 mi
10:53 pm29 °FOvercast.12 mph58%29.83 "Hg10 mi
9:53 pm30 °FClear.15 mph59%29.80 "Hg10 mi
8:53 pm31 °FPassing clouds.15 mph61%29.77 "Hg10 mi
7:53 pm32 °FPassing clouds.13 mph66%29.74 "Hg10 mi
6:53 pm31 °FPassing clouds.No wind69%29.71 "Hg10 mi
5:53 pm33 °FPassing clouds.9 mph66%29.68 "Hg10 mi
4:53 pm35 °FClear.8 mph67%29.65 "Hg10 mi
3:53 pm36 °FMostly cloudy.6 mph70%29.61 "Hg10 mi
Weather by CustomWeather, © 2019

See weather overview

Advertising